Regional Weather Roundup
Issued by NWS Grand Forks, ND

Home | Current Version | Previous Version | Text Only | Print | Product List | Glossary Off
Versions: 1 2 3 4 5 6 7 8 9 10 11 12 13 14 15 16 17 18 19 20 21 22 23 24 25 26 27 28 29 30 31 32 33 34 35 36 37 38 39 40 41 42 43 44 45 46 47 48 49 50

283
ASUS43 KFGF 261610
RWRFGF
PRAIRIE TO PINES  WEATHER ROUNDUP
NATIONAL WEATHER SERVICE EASTERN NORTH DAKOTA/GRAND FORKS ND
1100 AM CDT FRI MAY 26 2017

 **SATELLITE DATA USED TO AUGMENT SKY COVER AT AUTOMATED STATIONS**
 *****  WEATHER ACROSS EASTERN NORTH DAKOTA  *****

CITY           SKY/WX    TMP DP  RH WIND       PRES   REMARKS
GRAND FORKS    FAIR      67  50  54 W16       29.64R
GRAND FRKS AFB FAIR      66  49  54 W13       29.65R
DEVILS LAKE    PTSUNNY   59  45  59 W22G28    29.67S
FARGO          FAIR      68  49  50 W10G20    29.68R
WAHPETON ARPT  FAIR      64  46  52 W15       29.72S
$$

 ***** WEATHER ACROSS CENTRAL AND WESTERN NORTH DAKOTA  *****

CITY           SKY/WX    TMP DP  RH WIND       PRES   REMARKS
BISMARCK       CLOUDY    57  40  52 NW16G25   29.78R
MINOT          CLOUDY    56  44  64 W24G33    29.70R
JAMESTOWN      FAIR      60  44  55 W17G29    29.72R
MINOT AFB      CLOUDY    54  46  73 W17G25    29.68R
GARRISON         N/A     54  42  64 W22G31    29.73R
WILLISTON      CLOUDY    55  41  59 W18G28    29.78R
DICKINSON      PTSUNNY   58  37  45 NW26G38   29.79R
HETTINGER      FAIR      59  37  44 NW30G39   29.83R
$$

 *****  OTHER AIRPORT OBSERVATIONS IN OUR AREA  *****

CITY           SKY/WX    TMP DP  RH WIND       PRES   REMARKS
WALHALLA       NOT AVBL
GRAFTON AIRPOR FAIR      64  50  59 W12G18    29.64F
VALLEY CITY AR FAIR      61  46  59 W18G28    29.72S
CANDO          NOT AVBL
CAVALIER APRT  FAIR      64  48  55 W15G23    29.61S
GWINNER        MOSUNNY   64  46  52 MISG      29.73S
SHEYENNE NWR     N/A     66  49  54 W12       29.95S
ROLLA          CLOUDY    54  46  76 W15       29.65S
 ***** THE ABOVE OBSERVATIONS ARE NON NWS ARE NOT QUALITY
       CONTROLLED AND MAY MIS-REPORT RAIN FOR SNOW...
$$

  *****  WEATHER ACROSS NORTHERN MINNESOTA  *****

CITY           SKY/WX    TMP DP  RH WIND       PRES   REMARKS
FLAG ISLAND    FAIR      57  54  88 S8        29.60F
WARROAD        FAIR      66  52  59 SE3       29.62S
ROSEAU         FAIR      68  48  49 SW8       29.61F
HALLOCK        PTSUNNY   66  48  52 W14       29.60F
THF RVR FALLS  FAIR      65  47  52 SW9G16    29.65S
BAUDETTE       PTSUNNY   67  54  63 SW6       29.62F
WASKISH        PTSUNNY   66  55  68 W10       29.65S
CROOKSTON      FAIR      66  48  52 W7        29.65S
STEPHEN NDAWN    N/A     66  48  52 W8          N/A
GREENBUSH NDAW   N/A     66  46  48 SW7         N/A
$$
  *****  WEATHER ACROSS CENTRAL AND WEST MINNESOTA  *****

CITY           SKY/WX    TMP DP  RH WIND       PRES   REMARKS
FOSSTON        FAIR      66  46  48 SW12G17   29.67R
BEMIDJI        FAIR      68  50  52 SW6       29.66S
PARK RAPIDS    FAIR      69  48  47 W10       29.68R
ELBOW LAKE     FAIR      64  50  59 SW12      29.73R
WADENA         FAIR      66  52  59 W6        29.69S
DETROIT LAKES  FAIR      64  45  48 W9        29.70S
MOORHEAD       FAIR      66  46  48 W12G21    29.69S
FERGUS FALLS   FAIR      66  52  59 W7        29.70S
MORRIS MN      FAIR      66  52  59 W12       29.73R
STAPLES        FAIR      66  52  59 W8        29.70R
$$
  *****  WEATHER ELSEWHERE ACROSS MINNESOTA  *****

CITY           SKY/WX    TMP DP  RH WIND       PRES   REMARKS
DULUTH         CLOUDY    57  51  80 SE9       29.73F
INTRNTL FALLS  PTSUNNY   67  54  63 VRB6      29.64S
ELY            CLOUDY    59  52  77 S9        29.71F
CLOQUET        FAIR      57  48  72 E7        29.72S
WHEATON        FAIR      66  46  48 W10G18    29.74S
BRAINERD       FAIR      68  56  65 S10       29.69S
HIBBING        FAIR      62  54  74 S8        29.69F
ALEXANDRIA     FAIR      66  49  54 W10       29.73R
SAINT CLOUD    FAIR      69  58  67 S8        29.70S
MINNEAPOLIS    PTSUNNY   67  54  63 S7        29.74S
$$

  *****  WEATHER ACROSS SOUTH DAKOTA  *****

CITY           SKY/WX    TMP DP  RH WIND       PRES   REMARKS
SIOUX FALLS    FAIR      68  51  54 NW16      29.79F
BROOKINGS      FAIR      64  49  57 W14       29.79R
WATERTOWN      FAIR      62  48  60 NW13      29.77S
HURON          FAIR      65  43  44 NW16      29.81S
SISSETON         N/A     67  49  52 NW18G25   29.73R
ABERDEEN       FAIR      64  39  39 W16G26    29.78S
MITCHELL       FAIR      67  46  47 W15       29.83S
PIERRE         FAIR      63  39  41 NW21      29.84F
MOBRIDGE       FAIR      61  40  45 NW18G25   29.79R
RAPID CITY     FAIR      62  34  35 N10       29.91S
$$

  *****  SOME WEATHER IN NEARBY STATES *****

CITY           SKY/WX    TMP DP  RH WIND       PRES   REMARKS
GLASGOW MT     FAIR      62  38  40 NW17      29.83F
GREAT FALLS MT FAIR      53  38  56 CALM      29.96S
CHEYENNE WY    PTSUNNY   49  36  61 S13       29.98F
SCOTTSBLUFF NE CLOUDY    57  38  48 MISG      29.97S
OMAHA NE       FAIR      69  56  62 N17       29.77R
DES MOINES IA  PTSUNNY   69  60  73 N8        29.73S
DAVENPORT IA   PTSUNNY   67  56  67 SE15      29.75S
CHICAGO IL     CLOUDY    69  54  58 E14       29.82F
EAU CLAIRE WI  CLOUDY    70  54  56 S12       29.76F
LA CROSSE WI   FAIR      71  58  63 SW9       29.78R
$$

  *****  SOME NATIONAL WEATHER *****

CITY           SKY/WX    TMP DP  RH WIND       PRES   REMARKS
LA GUARDIA NY  PTSUNNY   70  57  63 W12       29.58S
RALEIGH NC     FAIR      75  55  49 W12G21    29.93R
ATLANTA GA     FAIR      75  54  47 W10       30.06S
NEW ORLEANS LA FAIR      81  66  60 S13       30.03R
OKLAHOMA CITY  FAIR      80  63  55 NW20G25   29.73R
ALBUQUERQUE NM FAIR      70  13  11 SW5       30.05F
SALT LAKE CITY PTSUNNY   57  37  47 N5        29.82R
LOS ANGELES CA CLOUDY    64  51  62 VRB6      29.98R
BOISE ID       FAIR      55  43  63 NW7       29.88S
SEATTLE WA     FAIR      62  51  67 W3        29.97S
$$

*** WEATHER ACROSS MANITOBA...SASKATCHEWAN AND ONTARIO ***
                ***ONTARIO***

CITY           SKY/WX    TMP DP  RH WIND       PRES   REMARKS
GERALDTON      CLOUDY    70  50  49 S9        29.80F
THUNDER BAY    CLOUDY    55  46  71 E10       29.79S
SIOUX LOOKOUT  LGT RAIN  54  52  94 S8        29.67F
TORONTO        PTSUNNY   64  54  68 NW8       29.70S
BIG TROUT LK   SUNNY     63  43  48 S8        29.65F
PICKLE LAKE    LGT RAIN  59  48  67 S9        29.72S
DRYDEN         CLOUDY    59  54  82 S15       29.64F
KENORA         PTSUNNY   59  52  77 S9        29.62S
$$
                *** MANITOBA***

CITY           SKY/WX    TMP DP  RH WIND       PRES   REMARKS
BRANDON        CLOUDY    57  48  72 W15       29.58R
DAUPHIN        PTSUNNY   61  48  63 W20G28    29.49R
ISLAND LAKE    NOT AVBL
PILOT MOUND      N/A     55  45  67 W14G22      N/A
THE PAS        LGT RAIN  50  48  93 NE3       29.37R FOG
THOMPSON       LGT RAIN  59  46  63 E10       29.46S
WINNIPEG       MOSUNNY   66  48  52 SW14G20   29.57S
LYNN LAKE      LGT RAIN  52  48  87 NE2       29.52R
CHURCHILL      CLOUDY    39  34  81 E15       29.68S
GILLAM         CLOUDY    61  41  48 E8        29.55S
$$
                ***SASKATCHEWAN***

CITY           SKY/WX    TMP DP  RH WIND       PRES   REMARKS
ESTEVAN        PTSUNNY   52  43  71 W20G28    29.70R
KINDERSLEY     PTSUNNY   55  45  67 W8        29.76F
LLOYDMINSTER   MOSUNNY   55  41  58 NW12      29.73F
PRINCE ALBERT  PTSUNNY   54  45  71 NW16G24   29.59R
REGINA         MOSUNNY   55  41  58 NW31G38   29.67S
YORKTON          N/A     54  48  82 W14G26    29.54R
N. BATTLEFORD  SUNNY     57  41  54 NW18G24   29.71F
LA RONGE       DRIZZLE   50  48  93 NW12G17   29.55R FOG
SASKATOON      MOSUNNY   57  43  58 W20G29    29.67S
SWIFT CURRENT  MOSUNNY   55  41  58 W17G23    29.78R
$$
NOTE: THESE ARE AUTOMATED STATIONS WITH LIMITED QUALITY CONTROL
      "FAIR" INDICATES FEW OR NO CLOUDS BELOW 12,000 FEET WITH NO
      SIGNIFICANT WEATHER AND/OR OBSTRUCTIONS TO VISIBILITY.
      SKY/WX - SKY CONDITION AND SIGNIFICANT WEATHER.
      TMP - AIR TEMPERATURE.    DP   - DEWPOINT TEMPERATURE.
      RH  - RELATIVE HUMIDITY.  PRES - PRESSURE.
      HX  - HEAT INDEX.         WCI  - WIND CHILL INDEX.
$




USA.gov is the U.S. government's official web portal to all federal, state and local government web resources and services.